AFL1335 ULAA-UUEE

Flight info

Callsign AFL1335
Flight time 1h 25m
Altitude 34000
Route ABELU3K ABELU T825 UREPI P65 ROMTA ROMTA3F
Aircraft A320/M-SDE3FGHIRWY/LB1

Departure

Time 2026-04-25 11:39
Airport Talagi Airport (ULAA)

Arrival

Time 2026-04-25 13:04
Airport Sheremetyevo International Airport (UUEE)
Time Latitude Longitude Altitude Speed Heading
2026-04-25 11:20 64.59663 40.71388 40 ft 0 kts 186°
2026-04-25 11:29 64.59666 40.71389 37 ft 2 kts 186°
2026-04-25 11:30 64.59685 40.71395 38 ft 3 kts 195°
2026-04-25 11:30 64.59704 40.71411 36 ft 3 kts 215°
2026-04-25 11:30 64.59716 40.71440 39 ft 3 kts 260°
2026-04-25 11:30 64.59717 40.71457 39 ft 0 kts 276°
2026-04-25 11:32 64.59719 40.71422 39 ft 6 kts 276°
2026-04-25 11:32 64.59731 40.71300 39 ft 9 kts 308°
2026-04-25 11:33 64.59789 40.71279 40 ft 8 kts
2026-04-25 11:33 64.59828 40.71345 38 ft 7 kts 73°
2026-04-25 11:33 64.59826 40.71481 40 ft 11 kts 96°
2026-04-25 11:33 64.59817 40.71648 40 ft 10 kts 97°
2026-04-25 11:34 64.59809 40.71806 39 ft 10 kts 96°
2026-04-25 11:34 64.59802 40.71953 40 ft 8 kts 96°
2026-04-25 11:34 64.59795 40.72102 38 ft 10 kts 96°
2026-04-25 11:34 64.59787 40.72266 40 ft 11 kts 97°
2026-04-25 11:35 64.59779 40.72428 40 ft 10 kts 96°
2026-04-25 11:35 64.59770 40.72621 40 ft 13 kts 96°
2026-04-25 11:35 64.59760 40.72818 40 ft 12 kts 96°
2026-04-25 11:35 64.59752 40.72996 40 ft 11 kts 96°
2026-04-25 11:36 64.59743 40.73182 40 ft 12 kts 96°
2026-04-25 11:36 64.59734 40.73363 40 ft 11 kts 96°
2026-04-25 11:36 64.59725 40.73529 40 ft 10 kts 96°
2026-04-25 11:36 64.59715 40.73683 40 ft 10 kts 103°
2026-04-25 11:37 64.59703 40.73829 40 ft 9 kts 97°
2026-04-25 11:37 64.59693 40.74025 40 ft 12 kts 96°
2026-04-25 11:37 64.59698 40.74158 38 ft 7 kts 54°
2026-04-25 11:37 64.59754 40.74194 40 ft 10 kts
2026-04-25 11:38 64.59838 40.74217 39 ft 14 kts
2026-04-25 11:38 64.59903 40.74132 35 ft 11 kts 294°
2026-04-25 11:38 64.59919 40.73910 34 ft 18 kts 277°
2026-04-25 11:38 64.59957 40.73144 37 ft 86 kts 276°
2026-04-25 11:39 64.60051 40.71243 46 ft 145 kts 277°
2026-04-25 11:39 64.60172 40.69060 845 ft 123 kts 278°
2026-04-25 11:39 64.60276 40.67142 1565 ft 120 kts 276°
2026-04-25 11:39 64.60369 40.65113 1926 ft 136 kts 275°
2026-04-25 11:40 64.60475 40.62729 2184 ft 164 kts 276°
2026-04-25 11:40 64.60604 40.59911 2570 ft 187 kts 276°
2026-04-25 11:40 64.60752 40.56712 3035 ft 208 kts 275°
2026-04-25 11:40 64.60918 40.53146 3499 ft 233 kts 275°
2026-04-25 11:41 64.61098 40.49259 4303 ft 245 kts 275°
2026-04-25 11:41 64.61111 40.45266 5271 ft 250 kts 255°
2026-04-25 11:41 64.60221 40.41864 6196 ft 256 kts 221°
2026-04-25 11:41 64.58586 40.40132 7132 ft 265 kts 194°
2026-04-25 11:42 64.56731 40.39648 8115 ft 270 kts 185°
2026-04-25 11:42 64.54830 40.39563 9086 ft 275 kts 184°
2026-04-25 11:42 64.52911 40.39496 9851 ft 286 kts 185°
2026-04-25 11:42 64.50840 40.39287 10183 ft 309 kts 186°
2026-04-25 11:43 64.48613 40.38899 10540 ft 329 kts 188°
2026-04-25 11:43 64.46293 40.38367 11242 ft 337 kts 189°
2026-04-25 11:43 64.43941 40.37743 12044 ft 342 kts 189°
2026-04-25 11:43 64.41573 40.37069 12851 ft 346 kts 189°
2026-04-25 11:44 64.39147 40.36363 13618 ft 351 kts 189°
2026-04-25 11:44 64.36736 40.35664 14328 ft 355 kts 190°
2026-04-25 11:44 64.34269 40.34951 15036 ft 359 kts 190°
2026-04-25 11:44 64.31775 40.34238 15730 ft 363 kts 190°
2026-04-25 11:45 64.29251 40.33526 16418 ft 367 kts 190°
2026-04-25 11:45 64.26704 40.32816 17085 ft 371 kts 190°
2026-04-25 11:45 64.24149 40.32106 17771 ft 375 kts 190°
2026-04-25 11:45 64.21534 40.31379 18360 ft 380 kts 190°
2026-04-25 11:46 64.18904 40.30651 18924 ft 384 kts 191°
2026-04-25 11:46 64.16216 40.29910 19532 ft 388 kts 191°
2026-04-25 11:46 64.13511 40.29170 20124 ft 393 kts 191°
2026-04-25 11:46 64.10814 40.28432 20697 ft 397 kts 191°
2026-04-25 11:47 64.08045 40.27674 21264 ft 402 kts 191°
2026-04-25 11:47 64.05254 40.26914 21804 ft 406 kts 191°
2026-04-25 11:47 64.02436 40.26147 22325 ft 410 kts 191°
2026-04-25 11:47 63.99585 40.25367 22829 ft 414 kts 192°
2026-04-25 11:48 63.96710 40.24573 23273 ft 418 kts 192°
2026-04-25 11:48 63.93840 40.23782 23669 ft 421 kts 192°
2026-04-25 11:48 63.90919 40.22986 24056 ft 424 kts 191°
2026-04-25 11:48 63.87974 40.22188 24455 ft 427 kts 191°
2026-04-25 11:49 63.85009 40.21388 24837 ft 430 kts 191°
2026-04-25 11:49 63.82021 40.20587 25224 ft 433 kts 191°
2026-04-25 11:49 63.79013 40.19780 25597 ft 436 kts 191°
2026-04-25 11:49 63.76024 40.18975 25958 ft 439 kts 191°
2026-04-25 11:50 63.73009 40.17839 26315 ft 437 kts 199°
2026-04-25 11:50 63.70105 40.15780 26659 ft 437 kts 204°
2026-04-25 11:50 63.67223 40.13551 27008 ft 440 kts 204°
2026-04-25 11:50 63.64304 40.11302 27355 ft 443 kts 203°
2026-04-25 11:51 63.61411 40.09081 27685 ft 445 kts 203°
2026-04-25 11:51 63.58465 40.06829 28008 ft 448 kts 203°
2026-04-25 11:51 63.56504 40.05333 28214 ft 449 kts 203°
2026-04-25 11:51 63.52519 40.02302 28632 ft 452 kts 203°
2026-04-25 11:52 63.49565 40.00067 28900 ft 455 kts 203°
2026-04-25 11:52 63.46553 39.97795 29185 ft 457 kts 203°
2026-04-25 11:52 63.44552 39.96287 29359 ft 458 kts 203°
2026-04-25 11:52 63.41530 39.93886 29598 ft 459 kts 205°
2026-04-25 11:53 63.37579 39.90482 29971 ft 458 kts 206°
2026-04-25 11:53 63.35580 39.88699 30162 ft 458 kts 206°
2026-04-25 11:53 63.32624 39.86039 30445 ft 458 kts 206°
2026-04-25 11:53 63.29707 39.83420 30728 ft 458 kts 206°
2026-04-25 11:54 63.26743 39.80797 31015 ft 458 kts 205°
2026-04-25 11:54 63.23771 39.78211 31307 ft 458 kts 205°
2026-04-25 11:54 63.17820 39.73131 31901 ft 457 kts 205°
2026-04-25 11:55 63.14850 39.70611 32197 ft 457 kts 205°
2026-04-25 11:55 63.11904 39.68109 32490 ft 457 kts 205°
2026-04-25 11:55 63.08925 39.65576 32791 ft 457 kts 205°
2026-04-25 11:55 63.05980 39.63074 33083 ft 457 kts 205°
2026-04-25 11:56 63.03007 39.60554 33378 ft 457 kts 205°
2026-04-25 11:56 63.00015 39.58015 33495 ft 458 kts 205°
2026-04-25 11:56 62.97036 39.55494 33521 ft 457 kts 205°
2026-04-25 11:57 62.91140 39.50533 33516 ft 455 kts 205°
2026-04-25 11:57 62.85217 39.45570 33522 ft 455 kts 205°
2026-04-25 11:58 62.79327 39.40647 33515 ft 454 kts 205°
2026-04-25 11:58 62.73404 39.35749 33527 ft 454 kts 205°
2026-04-25 11:59 62.67496 39.30876 33522 ft 453 kts 205°
2026-04-25 11:59 62.61592 39.26008 33527 ft 453 kts 205°
2026-04-25 12:00 62.52756 39.18763 33533 ft 453 kts 205°
2026-04-25 12:01 62.43934 39.11594 33536 ft 452 kts 205°
2026-04-25 12:01 62.38035 39.06817 33541 ft 452 kts 205°
2026-04-25 12:02 62.29223 38.99718 33539 ft 451 kts 205°
2026-04-25 12:02 62.23345 38.94998 33543 ft 451 kts 204°
2026-04-25 12:03 62.17451 38.90296 33547 ft 450 kts 204°
2026-04-25 12:03 62.11601 38.85647 33544 ft 450 kts 204°
2026-04-25 12:04 62.05724 38.80987 33544 ft 449 kts 204°
2026-04-25 12:04 61.99889 38.76375 33542 ft 449 kts 204°
2026-04-25 12:05 61.94012 38.71781 33544 ft 448 kts 204°
2026-04-25 12:05 61.87976 38.68440 33540 ft 452 kts 195°
2026-04-25 12:06 61.81792 38.65828 33533 ft 452 kts 195°
2026-04-25 12:06 61.75655 38.63205 33528 ft 452 kts 195°
2026-04-25 12:07 61.69474 38.60579 33528 ft 452 kts 195°
2026-04-25 12:07 61.63333 38.58003 33525 ft 452 kts 195°
2026-04-25 12:08 61.57161 38.55415 33526 ft 452 kts 195°
2026-04-25 12:08 61.50983 38.52844 33526 ft 451 kts 195°
2026-04-25 12:09 61.44806 38.50277 33525 ft 451 kts 195°
2026-04-25 12:09 61.38678 38.47719 33524 ft 451 kts 195°
2026-04-25 12:10 61.32507 38.45176 33531 ft 451 kts 195°
2026-04-25 12:10 61.26379 38.42661 33529 ft 451 kts 195°
2026-04-25 12:11 61.20135 38.40849 33529 ft 454 kts 189°
2026-04-25 12:11 61.13831 38.39514 33528 ft 454 kts 190°
2026-04-25 12:12 61.08597 38.38396 33530 ft 454 kts 190°
2026-04-25 12:12 61.01256 38.36837 33528 ft 455 kts 190°
2026-04-25 12:13 60.94953 38.35500 33530 ft 455 kts 190°
2026-04-25 12:13 60.88668 38.34164 33536 ft 455 kts 190°
2026-04-25 12:14 60.82393 38.32866 33535 ft 455 kts 190°
2026-04-25 12:14 60.76069 38.31561 33537 ft 455 kts 190°
2026-04-25 12:15 60.69787 38.30237 33548 ft 455 kts 190°
2026-04-25 12:15 60.63465 38.28924 33543 ft 456 kts 190°
2026-04-25 12:16 60.57140 38.27628 33537 ft 456 kts 190°
2026-04-25 12:16 60.50859 38.26341 33536 ft 456 kts 190°
2026-04-25 12:17 60.44562 38.25058 33539 ft 456 kts 190°
2026-04-25 12:17 60.38238 38.23780 33549 ft 456 kts 190°
2026-04-25 12:18 60.31896 38.22488 33546 ft 456 kts 190°
2026-04-25 12:18 60.25613 38.21215 33544 ft 456 kts 190°
2026-04-25 12:19 60.16128 38.19306 33555 ft 456 kts 190°
2026-04-25 12:20 60.09848 38.18038 33554 ft 456 kts 190°
2026-04-25 12:20 60.03522 38.16763 33553 ft 456 kts 190°
2026-04-25 12:21 59.97230 38.15512 33561 ft 456 kts 190°
2026-04-25 12:21 59.90889 38.14247 33563 ft 456 kts 190°
2026-04-25 12:22 59.84614 38.13002 33565 ft 455 kts 190°
2026-04-25 12:22 59.78297 38.11760 33575 ft 455 kts 190°
2026-04-25 12:23 59.72018 38.10522 33569 ft 455 kts 191°
2026-04-25 12:23 59.65712 38.09274 33582 ft 454 kts 190°
2026-04-25 12:24 59.59393 38.08046 33582 ft 454 kts 190°
2026-04-25 12:24 59.53122 38.06831 33591 ft 454 kts 190°
2026-04-25 12:25 59.46816 38.05613 33592 ft 454 kts 190°
2026-04-25 12:25 59.40562 38.04422 33598 ft 453 kts 190°
2026-04-25 12:26 59.34257 38.03217 33600 ft 453 kts 190°
2026-04-25 12:26 59.27974 38.02005 33595 ft 453 kts 190°
2026-04-25 12:27 59.21724 38.00900 33599 ft 453 kts 189°
2026-04-25 12:27 59.15459 37.99920 33594 ft 453 kts 189°
2026-04-25 12:28 59.09172 37.98933 33597 ft 452 kts 189°
2026-04-25 12:28 59.02879 37.97910 33596 ft 452 kts 189°
2026-04-25 12:29 58.96627 37.96893 33595 ft 452 kts 189°
2026-04-25 12:29 58.90339 37.95876 33596 ft 452 kts 189°
2026-04-25 12:30 58.84096 37.94880 33601 ft 452 kts 189°
2026-04-25 12:30 58.77813 37.93882 33604 ft 452 kts 189°
2026-04-25 12:31 58.71521 37.92891 33606 ft 452 kts 189°
2026-04-25 12:31 58.65279 37.91915 33606 ft 452 kts 189°
2026-04-25 12:32 58.58970 37.91054 33605 ft 453 kts 189°
2026-04-25 12:32 58.52717 37.90243 33600 ft 452 kts 189°
2026-04-25 12:33 58.46426 37.89399 33610 ft 452 kts 189°
2026-04-25 12:33 58.40167 37.88557 33611 ft 452 kts 189°
2026-04-25 12:34 58.33873 37.87695 33617 ft 453 kts 189°
2026-04-25 12:34 58.27572 37.86852 33616 ft 452 kts 189°
2026-04-25 12:35 58.21317 37.86026 33494 ft 453 kts 189°
2026-04-25 12:35 58.18165 37.85612 33221 ft 453 kts 189°
2026-04-25 12:35 58.15030 37.85068 32939 ft 451 kts 192°
2026-04-25 12:35 58.11916 37.84314 32665 ft 450 kts 193°
2026-04-25 12:36 58.09858 37.83733 32494 ft 450 kts 194°
2026-04-25 12:36 58.05754 37.82483 32128 ft 450 kts 194°
2026-04-25 12:36 58.03662 37.81843 31951 ft 450 kts 194°
2026-04-25 12:36 58.00597 37.80932 31695 ft 451 kts 194°
2026-04-25 12:37 57.97477 37.80050 31425 ft 451 kts 194°
2026-04-25 12:37 57.94357 37.79205 31161 ft 452 kts 193°
2026-04-25 12:37 57.91230 37.78386 30898 ft 452 kts 193°
2026-04-25 12:37 57.88145 37.77585 30656 ft 453 kts 193°
2026-04-25 12:38 57.85018 37.76769 30410 ft 453 kts 193°
2026-04-25 12:38 57.81883 37.75943 30157 ft 454 kts 194°
2026-04-25 12:38 57.78753 37.75113 29911 ft 454 kts 194°
2026-04-25 12:38 57.75626 37.74282 29658 ft 454 kts 194°
2026-04-25 12:39 57.72523 37.73457 29361 ft 455 kts 194°
2026-04-25 12:39 57.69374 37.72625 29067 ft 455 kts 194°
2026-04-25 12:39 57.66228 37.71793 28782 ft 456 kts 193°
2026-04-25 12:39 57.63075 37.70962 28493 ft 456 kts 193°
2026-04-25 12:40 57.59931 37.70134 28210 ft 455 kts 193°
2026-04-25 12:40 57.56836 37.69321 27928 ft 454 kts 193°
2026-04-25 12:40 57.53710 37.68503 27651 ft 452 kts 193°
2026-04-25 12:40 57.50600 37.67697 27373 ft 451 kts 193°
2026-04-25 12:41 57.47492 37.66896 27100 ft 449 kts 193°
2026-04-25 12:41 57.44432 37.66101 26848 ft 447 kts 193°
2026-04-25 12:41 57.41364 37.65300 26570 ft 445 kts 193°
2026-04-25 12:41 57.38280 37.64491 26303 ft 444 kts 193°
2026-04-25 12:42 57.35226 37.63691 26042 ft 442 kts 193°
2026-04-25 12:42 57.33210 37.63164 25869 ft 441 kts 193°
2026-04-25 12:42 57.29175 37.62122 25525 ft 439 kts 193°
2026-04-25 12:42 57.26140 37.61346 25267 ft 438 kts 193°
2026-04-25 12:43 57.23133 37.60579 25018 ft 437 kts 193°
2026-04-25 12:43 57.20113 37.59806 24760 ft 435 kts 193°
2026-04-25 12:43 57.14124 37.58261 24272 ft 433 kts 193°
2026-04-25 12:44 57.11134 37.57493 24030 ft 431 kts 193°
2026-04-25 12:44 57.08200 37.56744 23789 ft 430 kts 193°
2026-04-25 12:44 57.02308 37.55250 22574 ft 423 kts 193°
2026-04-25 12:45 56.99440 37.54521 21928 ft 417 kts 193°
2026-04-25 12:45 56.96560 37.53790 21291 ft 413 kts 193°
2026-04-25 12:45 56.90915 37.52358 20119 ft 405 kts 193°
2026-04-25 12:46 56.88164 37.51662 19569 ft 402 kts 193°
2026-04-25 12:46 56.85403 37.50966 19028 ft 398 kts 193°
2026-04-25 12:46 56.82661 37.50272 18497 ft 395 kts 193°
2026-04-25 12:46 56.79943 37.49587 17968 ft 393 kts 193°
2026-04-25 12:47 56.77235 37.48909 17389 ft 390 kts 193°
2026-04-25 12:47 56.74591 37.48249 16859 ft 386 kts 193°
2026-04-25 12:47 56.71938 37.47588 16320 ft 382 kts 193°
2026-04-25 12:47 56.69317 37.46932 15987 ft 374 kts 193°
2026-04-25 12:48 56.66763 37.46296 15553 ft 368 kts 193°
2026-04-25 12:48 56.64221 37.45660 15001 ft 367 kts 192°
2026-04-25 12:48 56.61713 37.45030 14443 ft 367 kts 192°
2026-04-25 12:48 56.59176 37.44394 13878 ft 366 kts 192°
2026-04-25 12:49 56.56643 37.43764 13263 ft 367 kts 191°
2026-04-25 12:49 56.54144 37.43146 12661 ft 366 kts 191°
2026-04-25 12:49 56.51632 37.42522 12060 ft 364 kts 191°
2026-04-25 12:49 56.49127 37.41898 11446 ft 362 kts 191°
2026-04-25 12:50 56.46640 37.41282 10847 ft 360 kts 190°
2026-04-25 12:50 56.44185 37.40680 10616 ft 348 kts 190°
2026-04-25 12:50 56.41828 37.40106 10479 ft 333 kts 190°
2026-04-25 12:50 56.39603 37.39561 10353 ft 321 kts 190°
2026-04-25 12:51 56.37425 37.39029 10219 ft 309 kts 190°
2026-04-25 12:51 56.35313 37.38513 9989 ft 303 kts 191°
2026-04-25 12:51 56.33241 37.38003 9837 ft 299 kts 190°
2026-04-25 12:51 56.31196 37.37496 9615 ft 300 kts 190°
2026-04-25 12:52 56.29119 37.36980 9140 ft 300 kts 190°
2026-04-25 12:52 56.27062 37.36473 8768 ft 296 kts 190°
2026-04-25 12:52 56.25028 37.35977 8364 ft 293 kts 190°
2026-04-25 12:52 56.23011 37.35486 8035 ft 289 kts 190°
2026-04-25 12:53 56.21055 37.35060 7892 ft 278 kts 184°
2026-04-25 12:53 56.19215 37.35740 7763 ft 272 kts 153°
2026-04-25 12:53 56.17842 37.37942 7604 ft 263 kts 122°
2026-04-25 12:53 56.17274 37.40988 7323 ft 256 kts 91°
2026-04-25 12:54 56.17542 37.44109 6980 ft 252 kts 72°
2026-04-25 12:54 56.18004 37.47120 6599 ft 252 kts 73°
2026-04-25 12:54 56.18466 37.50162 6258 ft 251 kts 73°
2026-04-25 12:54 56.18925 37.53191 5872 ft 250 kts 74°
2026-04-25 12:55 56.19213 37.56219 5539 ft 249 kts 90°
2026-04-25 12:55 56.19077 37.58263 5284 ft 247 kts 105°
2026-04-25 12:55 56.18032 37.61857 4886 ft 242 kts 134°
2026-04-25 12:55 56.16867 37.63971 4732 ft 237 kts 136°
2026-04-25 12:56 56.15707 37.66085 4601 ft 237 kts 136°
2026-04-25 12:56 56.14554 37.68202 4484 ft 237 kts 136°
2026-04-25 12:56 56.13406 37.70315 4364 ft 237 kts 136°
2026-04-25 12:56 56.12271 37.72406 4248 ft 229 kts 136°
2026-04-25 12:57 56.11197 37.74380 4145 ft 218 kts 136°
2026-04-25 12:57 56.10099 37.76162 4089 ft 207 kts 150°
2026-04-25 12:57 56.08810 37.76995 3965 ft 188 kts 176°
2026-04-25 12:57 56.07554 37.76834 3795 ft 175 kts 199°
2026-04-25 12:58 56.06446 37.76192 3651 ft 164 kts 201°
2026-04-25 12:58 56.05396 37.75593 3523 ft 152 kts 201°
2026-04-25 12:58 56.04404 37.75028 3412 ft 150 kts 201°
2026-04-25 12:58 56.03397 37.74452 3293 ft 152 kts 201°
2026-04-25 12:59 56.02463 37.73620 3168 ft 149 kts 221°
2026-04-25 12:59 56.01791 37.72249 3044 ft 148 kts 242°
2026-04-25 12:59 56.01438 37.70537 2928 ft 146 kts 256°
2026-04-25 12:59 56.01173 37.68766 2827 ft 147 kts 255°
2026-04-25 13:00 56.00912 37.67019 2686 ft 145 kts 256°
2026-04-25 13:00 56.00745 37.65891 2618 ft 139 kts 256°
2026-04-25 13:00 56.00423 37.63706 2502 ft 132 kts 256°
2026-04-25 13:00 56.00189 37.62116 2517 ft 132 kts 255°
2026-04-25 13:01 55.99959 37.60551 2455 ft 129 kts 256°
2026-04-25 13:01 55.99733 37.59023 2359 ft 129 kts 257°
2026-04-25 13:01 55.99505 37.57475 2172 ft 127 kts 256°
2026-04-25 13:01 55.99279 37.55942 2011 ft 127 kts 256°
2026-04-25 13:02 55.99054 37.54418 1842 ft 128 kts 257°
2026-04-25 13:02 55.98828 37.52886 1677 ft 126 kts 257°
2026-04-25 13:02 55.98606 37.51387 1486 ft 127 kts 257°
2026-04-25 13:02 55.98379 37.49853 1306 ft 127 kts 256°
2026-04-25 13:03 55.98153 37.48327 1127 ft 128 kts 256°
2026-04-25 13:03 55.97934 37.46850 965 ft 129 kts 255°
2026-04-25 13:03 55.97698 37.45257 784 ft 129 kts 256°
2026-04-25 13:03 55.97469 37.43721 643 ft 124 kts 255°
2026-04-25 13:04 55.97283 37.42469 641 ft 81 kts 255°
2026-04-25 13:04 55.97183 37.41800 642 ft 31 kts 254°
2026-04-25 13:04 55.97157 37.41625 645 ft 12 kts 256°
2026-04-25 13:04 55.97138 37.41477 643 ft 13 kts 261°
2026-04-25 13:05 55.97174 37.41343 640 ft 14 kts 336°
2026-04-25 13:05 55.97280 37.41291 639 ft 17 kts 345°
2026-04-25 13:05 55.97399 37.41236 640 ft 18 kts 345°
2026-04-25 13:05 55.97503 37.41187 639 ft 15 kts 346°
2026-04-25 13:06 55.97597 37.41154 640 ft 13 kts 12°
2026-04-25 13:06 55.97639 37.41276 642 ft 12 kts 76°
2026-04-25 13:06 55.97658 37.41409 641 ft 11 kts 75°
2026-04-25 13:06 55.97679 37.41527 644 ft 10 kts 60°
2026-04-25 13:07 55.97734 37.41554 642 ft 8 kts 348°
2026-04-25 13:07 55.97786 37.41531 639 ft 7 kts 346°
2026-04-25 13:07 55.97824 37.41555 639 ft 6 kts 54°
2026-04-25 13:07 55.97837 37.41618 643 ft 5 kts 75°
2026-04-25 13:08 55.97840 37.41638 639 ft 0 kts 75°